Sedalia, MO

12:28 AM CDT on July 25, 2017 (GMT -0500)
Sedalia Memorial

Weather History for KDMO - February, 2014

Change the Weather History Date:

Saturday, February 8, 2014

  Actual Average Record
Temperature  
Mean Temperature 22 °F 34 °F  
Max Temperature 28 °F 44 °F 71 °F (2001)
Min Temperature 16 °F 25 °F -14 °F (1985)
Degree Days  
Heating Degree Days 43 31  
Month to date heating degree days 394 251  
Since 1 July heating degree days 3545 3066  
Cooling Degree Days 0 0  
Month to date cooling degree days 0 0  
Year to date cooling degree days 0 0  
Moisture  
Dew Point 19 °F    
Average Humidity 83    
Maximum Humidity 92    
Minimum Humidity 73    
Precipitation  
Precipitation T in 0.08 in 1.29 in (2001)
Month to date precipitation 0.44 0.57  
Year to date precipitation 0.66 2.24  
Sea Level Pressure  
Sea Level Pressure 30.19 in    
Wind  
Wind Speed 6 mph (SSW)    
Max Wind Speed 14 mph    
Max Gust Speed 17 mph    
Visibility 8 miles    
Events      
T = Trace of Precipitation, MM = Missing Value Source: NWS Daily Summary

Daily Weather History Graph

Daily Weather History Graph

Search for Another Location

Airport or City:

Trip Planner

Search our weather history database for the weather conditions in past years. The results will help you decide how hot, cold, wet, or windy it might be!

Date:

Astronomy

Feb. 08, 2014 Rise Set
Actual Time 7:11 AM CST 5:42 PM CST
Civil Twilight 6:44 AM CST 6:10 PM CST
Nautical Twilight 6:12 AM CST 6:41 PM CST
Astronomical Twilight 5:41 AM CST 7:12 PM CST
Moon 12:38 PM CST (2/8) 2:23 AM CST (2/8)
Length of Visible Light 11h 26m
Length of Day
10h 30m
Waxing Gibbous, 69% of the Moon is Illuminated
Feb 8
Waxing Gibbous
Feb 14
Full
Feb 22
Last Quarter
Mar 1
New
Mar 8
First Quarter

Hourly Weather History & Observations

Time (CST) Temp. Windchill Dew Point Humidity Pressure Visibility Wind Dir Wind Speed Gust Speed Precip Events Conditions
12:15 AM 16.0 °F 7.4 °F 10.9 °F 81% 30.23 in 9.0 mi East 5.8 mph - 0.00 in   Overcast
12:53 AM 16.0 °F 7.4 °F 10.9 °F 81% 30.27 in 10.0 mi ESE 5.8 mph - 0.00 in   Overcast
1:24 AM 17.1 °F 8.7 °F 10.9 °F 77% 30.22 in 10.0 mi SE 5.8 mph - N/A   Overcast
1:53 AM 17.1 °F 7.6 °F 10.9 °F 77% 30.27 in 10.0 mi SE 6.9 mph - N/A   Overcast
2:53 AM 17.1 °F 8.7 °F 10.9 °F 77% 30.25 in 10.0 mi SE 5.8 mph - N/A   Overcast
3:53 AM 18.0 °F 11.1 °F 12.0 °F 78% 30.23 in 10.0 mi SE 4.6 mph - N/A   Overcast
4:53 AM 18.0 °F 11.1 °F 12.0 °F 78% 30.23 in 10.0 mi SSE 4.6 mph - N/A   Overcast
5:53 AM 19.0 °F 11.1 °F 12.9 °F 77% 30.21 in 10.0 mi SSE 5.8 mph - N/A   Overcast
6:53 AM 19.9 °F 12.1 °F 14.0 °F 78% 30.23 in 10.0 mi South 5.8 mph - N/A   Overcast
7:53 AM 21.0 °F 13.4 °F 15.1 °F 78% 30.23 in 10.0 mi SSW 5.8 mph - N/A   Overcast
8:27 AM 21.9 °F 12.5 °F 16.0 °F 78% 30.17 in 10.0 mi South 8.1 mph - N/A   Overcast
8:53 AM 23.0 °F 13.9 °F 17.1 °F 78% 30.22 in 10.0 mi SSW 8.1 mph - N/A   Overcast
9:53 AM 24.1 °F 13.1 °F 19.0 °F 81% 30.19 in 10.0 mi South 11.5 mph - N/A   Overcast
10:17 AM 25.0 °F 17.1 °F 19.9 °F 81% 30.16 in 9.0 mi South 6.9 mph - N/A   Overcast
10:32 AM 25.0 °F 18.1 °F 21.0 °F 85% 30.15 in 8.0 mi South 5.8 mph - N/A   Overcast
10:53 AM 26.1 °F 16.8 °F 21.0 °F 81% 30.19 in 8.0 mi SW 9.2 mph - N/A   Overcast
11:53 AM 27.0 °F 19.5 °F 21.0 °F 78% 30.20 in 9.0 mi SW 6.9 mph - N/A   Overcast
12:53 PM 27.0 °F 20.5 °F 21.9 °F 81% 30.17 in 7.0 mi WSW 5.8 mph - N/A   Overcast
1:53 PM 28.0 °F 20.0 °F 21.9 °F 78% 30.17 in 9.0 mi WSW 8.1 mph - N/A   Overcast
2:53 PM 28.0 °F 20.8 °F 21.9 °F 78% 30.13 in 10.0 mi SSW 6.9 mph - N/A   Overcast
3:53 PM 28.0 °F 19.3 °F 21.9 °F 78% 30.13 in 9.0 mi SW 9.2 mph - N/A   Overcast
4:53 PM 28.0 °F 20.8 °F 23.0 °F 81% 30.13 in 8.0 mi SW 6.9 mph - N/A   Overcast
5:53 PM 28.0 °F - 23.0 °F 81% 30.15 in 6.0 mi Calm Calm - N/A   Haze
6:53 PM 28.0 °F 24.2 °F 23.0 °F 81% 30.16 in 7.0 mi WNW 3.5 mph - N/A   Overcast
7:53 PM 28.0 °F 24.2 °F 24.1 °F 85% 30.15 in 7.0 mi NW 3.5 mph - N/A   Overcast
8:53 PM 28.0 °F 24.2 °F 24.1 °F 85% 30.18 in 5.0 mi WNW 3.5 mph - N/A   Overcast
9:53 PM 28.0 °F - 24.1 °F 85% 30.18 in 6.0 mi Calm Calm - N/A   Overcast
10:06 PM 28.0 °F - 23.0 °F 81% 30.14 in 6.0 mi Calm Calm - N/A   Haze
10:21 PM 28.0 °F - 23.0 °F 81% 30.14 in 6.0 mi Calm Calm - N/A   Haze
10:53 PM 27.0 °F - 24.1 °F 89% 30.18 in 5.0 mi Calm Calm - N/A   Overcast
11:36 PM 27.0 °F 23.0 °F 23.0 °F 85% 30.16 in 5.0 mi NW 3.5 mph - N/A   Overcast
11:53 PM 27.0 °F 23.0 °F 23.0 °F 85% 30.20 in 5.0 mi NW 3.5 mph - N/A   Overcast